owner,sensor,date,latitude,longitude,air_temperature,qcFlag 
COMPS,ioos:station:USF.COMPS:NFB:1,2012-12-01T00:00:00Z,25.0840,-81.0960,22.49,1111122 
COMPS,ioos:station:USF.COMPS:NFB:1,2012-12-01T00:06:00Z,25.0840,-81.0960,22.51,1111122 
COMPS,ioos:station:USF.COMPS:NFB:1,2012-12-01T00:12:00Z,25.0840,-81.0960,22.54,1111122 
COMPS,ioos:station:USF.COMPS:NFB:1,2012-12-01T00:18:00Z,25.0840,-81.0960,22.53,1111122 
COMPS,ioos:station:USF.COMPS:NFB:1,2012-12-01T00:24:00Z,25.0840,-81.0960,22.62,1111122 
COMPS,ioos:station:USF.COMPS:NFB:1,2012-12-01T00:30:00Z,25.0840,-81.0960,22.55,1111122 
COMPS,ioos:station:USF.COMPS:NFB:1,2012-12-01T00:36:00Z,25.0840,-81.0960,22.62,1111122 
COMPS,ioos:station:USF.COMPS:NFB:1,2012-12-01T00:42:00Z,25.0840,-81.0960,22.53,1111122 
COMPS,ioos:station:USF.COMPS:NFB:1,2012-12-01T00:48:00Z,25.0840,-81.0960,22.42,1111122 
COMPS,ioos:station:USF.COMPS:NFB:1,2012-12-01T00:54:00Z,25.0840,-81.0960,22.35,1111122 
COMPS,ioos:station:USF.COMPS:NFB:1,2012-12-01T01:00:00Z,25.0840,-81.0960,22.4,1111122 
COMPS,ioos:station:USF.COMPS:NFB:1,2012-12-01T01:06:00Z,25.0840,-81.0960,22.48,1111122 
COMPS,ioos:station:USF.COMPS:NFB:1,2012-12-01T01:12:00Z,25.0840,-81.0960,22.5,1111122 
COMPS,ioos:station:USF.COMPS:NFB:1,2012-12-01T01:18:00Z,25.0840,-81.0960,22.53,1111122 
COMPS,ioos:station:USF.COMPS:NFB:1,2012-12-01T01:24:00Z,25.0840,-81.0960,22.58,1111122 
COMPS,ioos:station:USF.COMPS:NFB:1,2012-12-01T01:30:00Z,25.0840,-81.0960,22.52,1111122 
COMPS,ioos:station:USF.COMPS:NFB:1,2012-12-01T01:36:00Z,25.0840,-81.0960,22.4,1111122 
COMPS,ioos:station:USF.COMPS:NFB:1,2012-12-01T01:42:00Z,25.0840,-81.0960,22.37,1111122 
COMPS,ioos:station:USF.COMPS:NFB:1,2012-12-01T01:48:00Z,25.0840,-81.0960,22.52,1111122 
COMPS,ioos:station:USF.COMPS:NFB:1,2012-12-01T01:54:00Z,25.0840,-81.0960,22.61,1111122 
COMPS,ioos:station:USF.COMPS:NFB:1,2012-12-01T02:00:00Z,25.0840,-81.0960,22.6,1111122 
COMPS,ioos:station:USF.COMPS:NFB:1,2012-12-01T02:06:00Z,25.0840,-81.0960,22.61,1111122 
COMPS,ioos:station:USF.COMPS:NFB:1,2012-12-01T02:12:00Z,25.0840,-81.0960,22.62,1111122 
COMPS,ioos:station:USF.COMPS:NFB:1,2012-12-01T02:18:00Z,25.0840,-81.0960,22.61,1111122 
COMPS,ioos:station:USF.COMPS:NFB:1,2012-12-01T02:24:00Z,25.0840,-81.0960,22.56,1111122 
COMPS,ioos:station:USF.COMPS:NFB:1,2012-12-01T02:30:00Z,25.0840,-81.0960,22.47,1111122 
COMPS,ioos:station:USF.COMPS:NFB:1,2012-12-01T02:36:00Z,25.0840,-81.0960,22.45,1111122 
COMPS,ioos:station:USF.COMPS:NFB:1,2012-12-01T02:42:00Z,25.0840,-81.0960,22.35,1111122 
COMPS,ioos:station:USF.COMPS:NFB:1,2012-12-01T02:48:00Z,25.0840,-81.0960,22.44,1111122 
COMPS,ioos:station:USF.COMPS:NFB:1,2012-12-01T02:54:00Z,25.0840,-81.0960,22.55,1111122 
COMPS,ioos:station:USF.COMPS:NFB:1,2012-12-01T03:00:00Z,25.0840,-81.0960,22.6,1111122 
COMPS,ioos:station:USF.COMPS:NFB:1,2012-12-01T03:06:00Z,25.0840,-81.0960,22.59,1111122 
COMPS,ioos:station:USF.COMPS:NFB:1,2012-12-01T03:12:00Z,25.0840,-81.0960,22.52,1111122 
COMPS,ioos:station:USF.COMPS:NFB:1,2012-12-01T03:18:00Z,25.0840,-81.0960,22.33,1111122 
COMPS,ioos:station:USF.COMPS:NFB:1,2012-12-01T03:24:00Z,25.0840,-81.0960,22.2,1111122 
COMPS,ioos:station:USF.COMPS:NFB:1,2012-12-01T03:30:00Z,25.0840,-81.0960,21.93,1111122 
COMPS,ioos:station:USF.COMPS:NFB:1,2012-12-01T03:36:00Z,25.0840,-81.0960,21.91,1111122 
COMPS,ioos:station:USF.COMPS:NFB:1,2012-12-01T03:42:00Z,25.0840,-81.0960,21.9,1111122 
COMPS,ioos:station:USF.COMPS:NFB:1,2012-12-01T03:48:00Z,25.0840,-81.0960,22.05,1111122 
COMPS,ioos:station:USF.COMPS:NFB:1,2012-12-01T03:54:00Z,25.0840,-81.0960,22.08,1111122 
COMPS,ioos:station:USF.COMPS:NFB:1,2012-12-01T04:00:00Z,25.0840,-81.0960,22.1,1111122 
COMPS,ioos:station:USF.COMPS:NFB:1,2012-12-01T04:06:00Z,25.0840,-81.0960,21.77,1111122 
COMPS,ioos:station:USF.COMPS:NFB:1,2012-12-01T04:12:00Z,25.0840,-81.0960,21.78,1111122 
COMPS,ioos:station:USF.COMPS:NFB:1,2012-12-01T04:18:00Z,25.0840,-81.0960,21.69,1111122 
COMPS,ioos:station:USF.COMPS:NFB:1,2012-12-01T04:24:00Z,25.0840,-81.0960,21.58,1111122 
COMPS,ioos:station:USF.COMPS:NFB:1,2012-12-01T04:30:00Z,25.0840,-81.0960,21.69,1111122 
COMPS,ioos:station:USF.COMPS:NFB:1,2012-12-01T04:36:00Z,25.0840,-81.0960,21.9,1111122 
COMPS,ioos:station:USF.COMPS:NFB:1,2012-12-01T04:42:00Z,25.0840,-81.0960,22.05,1111122 
COMPS,ioos:station:USF.COMPS:NFB:1,2012-12-01T04:48:00Z,25.0840,-81.0960,22.03,1111122 
COMPS,ioos:station:USF.COMPS:NFB:1,2012-12-01T04:54:00Z,25.0840,-81.0960,21.97,1111122 
COMPS,ioos:station:USF.COMPS:NFB:1,2012-12-01T05:00:00Z,25.0840,-81.0960,22.0,1111122 
COMPS,ioos:station:USF.COMPS:NFB:1,2012-12-01T05:06:00Z,25.0840,-81.0960,21.84,1111122 
COMPS,ioos:station:USF.COMPS:NFB:1,2012-12-01T05:12:00Z,25.0840,-81.0960,21.95,1111122 
COMPS,ioos:station:USF.COMPS:NFB:1,2012-12-01T05:18:00Z,25.0840,-81.0960,21.91,1111122 
COMPS,ioos:station:USF.COMPS:NFB:1,2012-12-01T05:24:00Z,25.0840,-81.0960,21.81,1111122 
COMPS,ioos:station:USF.COMPS:NFB:1,2012-12-01T05:30:00Z,25.0840,-81.0960,21.74,1111122 
COMPS,ioos:station:USF.COMPS:NFB:1,2012-12-01T05:36:00Z,25.0840,-81.0960,21.86,1111122 
COMPS,ioos:station:USF.COMPS:NFB:1,2012-12-01T05:42:00Z,25.0840,-81.0960,21.79,1111122 
COMPS,ioos:station:USF.COMPS:NFB:1,2012-12-01T05:48:00Z,25.0840,-81.0960,21.73,1111122 
COMPS,ioos:station:USF.COMPS:NFB:1,2012-12-01T05:54:00Z,25.0840,-81.0960,21.7,1111122 
COMPS,ioos:station:USF.COMPS:NFB:1,2012-12-01T06:00:00Z,25.0840,-81.0960,21.7,1111122 
COMPS,ioos:station:USF.COMPS:NFB:1,2012-12-01T06:06:00Z,25.0840,-81.0960,21.54,1111122 
COMPS,ioos:station:USF.COMPS:NFB:1,2012-12-01T06:12:00Z,25.0840,-81.0960,21.46,1111122 
COMPS,ioos:station:USF.COMPS:NFB:1,2012-12-01T06:18:00Z,25.0840,-81.0960,21.38,1111122 
COMPS,ioos:station:USF.COMPS:NFB:1,2012-12-01T06:24:00Z,25.0840,-81.0960,21.35,1111122 
COMPS,ioos:station:USF.COMPS:NFB:1,2012-12-01T06:30:00Z,25.0840,-81.0960,21.23,1111122 
COMPS,ioos:station:USF.COMPS:NFB:1,2012-12-01T06:36:00Z,25.0840,-81.0960,21.27,1111122 
COMPS,ioos:station:USF.COMPS:NFB:1,2012-12-01T06:42:00Z,25.0840,-81.0960,21.26,1111122 
COMPS,ioos:station:USF.COMPS:NFB:1,2012-12-01T06:48:00Z,25.0840,-81.0960,21.27,1111122 
COMPS,ioos:station:USF.COMPS:NFB:1,2012-12-01T06:54:00Z,25.0840,-81.0960,21.21,1111122 
COMPS,ioos:station:USF.COMPS:NFB:1,2012-12-01T07:00:00Z,25.0840,-81.0960,21.2,1111122 
COMPS,ioos:station:USF.COMPS:NFB:1,2012-12-01T07:06:00Z,25.0840,-81.0960,21.23,1111122 
COMPS,ioos:station:USF.COMPS:NFB:1,2012-12-01T07:12:00Z,25.0840,-81.0960,21.24,1111122 
COMPS,ioos:station:USF.COMPS:NFB:1,2012-12-01T07:18:00Z,25.0840,-81.0960,21.25,1111122 
COMPS,ioos:station:USF.COMPS:NFB:1,2012-12-01T07:24:00Z,25.0840,-81.0960,21.27,1111122 
COMPS,ioos:station:USF.COMPS:NFB:1,2012-12-01T07:30:00Z,25.0840,-81.0960,21.22,1111122 
COMPS,ioos:station:USF.COMPS:NFB:1,2012-12-01T07:36:00Z,25.0840,-81.0960,21.27,1111122 
COMPS,ioos:station:USF.COMPS:NFB:1,2012-12-01T07:42:00Z,25.0840,-81.0960,21.26,1111122 
COMPS,ioos:station:USF.COMPS:NFB:1,2012-12-01T07:48:00Z,25.0840,-81.0960,21.27,1111122 
COMPS,ioos:station:USF.COMPS:NFB:1,2012-12-01T07:54:00Z,25.0840,-81.0960,21.24,1111122 
COMPS,ioos:station:USF.COMPS:NFB:1,2012-12-01T08:00:00Z,25.0840,-81.0960,21.2,1111122 
COMPS,ioos:station:USF.COMPS:NFB:1,2012-12-01T08:06:00Z,25.0840,-81.0960,21.26,1111122 
COMPS,ioos:station:USF.COMPS:NFB:1,2012-12-01T08:12:00Z,25.0840,-81.0960,21.27,1111122 
COMPS,ioos:station:USF.COMPS:NFB:1,2012-12-01T08:18:00Z,25.0840,-81.0960,21.27,1111122 
COMPS,ioos:station:USF.COMPS:NFB:1,2012-12-01T08:24:00Z,25.0840,-81.0960,21.27,1111122 
COMPS,ioos:station:USF.COMPS:NFB:1,2012-12-01T08:30:00Z,25.0840,-81.0960,21.25,1111122 
COMPS,ioos:station:USF.COMPS:NFB:1,2012-12-01T08:36:00Z,25.0840,-81.0960,21.27,1111122 
COMPS,ioos:station:USF.COMPS:NFB:1,2012-12-01T08:42:00Z,25.0840,-81.0960,21.26,1111122 
COMPS,ioos:station:USF.COMPS:NFB:1,2012-12-01T08:48:00Z,25.0840,-81.0960,21.27,1111122 
COMPS,ioos:station:USF.COMPS:NFB:1,2012-12-01T08:54:00Z,25.0840,-81.0960,21.22,1111122 
COMPS,ioos:station:USF.COMPS:NFB:1,2012-12-01T09:00:00Z,25.0840,-81.0960,21.2,1111122 
COMPS,ioos:station:USF.COMPS:NFB:1,2012-12-01T09:06:00Z,25.0840,-81.0960,21.14,1111122 
COMPS,ioos:station:USF.COMPS:NFB:1,2012-12-01T09:12:00Z,25.0840,-81.0960,21.13,1111122 
COMPS,ioos:station:USF.COMPS:NFB:1,2012-12-01T09:18:00Z,25.0840,-81.0960,21.11,1111122 
COMPS,ioos:station:USF.COMPS:NFB:1,2012-12-01T09:24:00Z,25.0840,-81.0960,21.07,1111122 
COMPS,ioos:station:USF.COMPS:NFB:1,2012-12-01T09:30:00Z,25.0840,-81.0960,21.05,1111122 
COMPS,ioos:station:USF.COMPS:NFB:1,2012-12-01T09:36:00Z,25.0840,-81.0960,21.07,1111122 
COMPS,ioos:station:USF.COMPS:NFB:1,2012-12-01T09:42:00Z,25.0840,-81.0960,21.12,1111122 
COMPS,ioos:station:USF.COMPS:NFB:1,2012-12-01T09:48:00Z,25.0840,-81.0960,21.13,1111122 
COMPS,ioos:station:USF.COMPS:NFB:1,2012-12-01T09:54:00Z,25.0840,-81.0960,21.13,1111122 
COMPS,ioos:station:USF.COMPS:NFB:1,2012-12-01T10:00:00Z,25.0840,-81.0960,21.1,1111122 
COMPS,ioos:station:USF.COMPS:NFB:1,2012-12-01T10:06:00Z,25.0840,-81.0960,21.26,1111122 
COMPS,ioos:station:USF.COMPS:NFB:1,2012-12-01T10:12:00Z,25.0840,-81.0960,21.26,1111122 
COMPS,ioos:station:USF.COMPS:NFB:1,2012-12-01T10:18:00Z,25.0840,-81.0960,21.27,1111122 
COMPS,ioos:station:USF.COMPS:NFB:1,2012-12-01T10:24:00Z,25.0840,-81.0960,21.3,1111122 
COMPS,ioos:station:USF.COMPS:NFB:1,2012-12-01T10:30:00Z,25.0840,-81.0960,21.32,1111122 
COMPS,ioos:station:USF.COMPS:NFB:1,2012-12-01T10:36:00Z,25.0840,-81.0960,21.4,1111122 
COMPS,ioos:station:USF.COMPS:NFB:1,2012-12-01T10:42:00Z,25.0840,-81.0960,21.44,1111122 
COMPS,ioos:station:USF.COMPS:NFB:1,2012-12-01T10:48:00Z,25.0840,-81.0960,21.47,1111122 
COMPS,ioos:station:USF.COMPS:NFB:1,2012-12-01T10:54:00Z,25.0840,-81.0960,21.45,1111122 
COMPS,ioos:station:USF.COMPS:NFB:1,2012-12-01T11:00:00Z,25.0840,-81.0960,21.5,1111122 
COMPS,ioos:station:USF.COMPS:NFB:1,2012-12-01T11:06:00Z,25.0840,-81.0960,21.42,1111122 
COMPS,ioos:station:USF.COMPS:NFB:1,2012-12-01T11:12:00Z,25.0840,-81.0960,21.47,1111122 
COMPS,ioos:station:USF.COMPS:NFB:1,2012-12-01T11:18:00Z,25.0840,-81.0960,21.43,1111122 
COMPS,ioos:station:USF.COMPS:NFB:1,2012-12-01T11:24:00Z,25.0840,-81.0960,21.46,1111122 
COMPS,ioos:station:USF.COMPS:NFB:1,2012-12-01T11:30:00Z,25.0840,-81.0960,21.41,1111122 
COMPS,ioos:station:USF.COMPS:NFB:1,2012-12-01T11:36:00Z,25.0840,-81.0960,21.41,1111122 
COMPS,ioos:station:USF.COMPS:NFB:1,2012-12-01T11:42:00Z,25.0840,-81.0960,21.41,1111122 
COMPS,ioos:station:USF.COMPS:NFB:1,2012-12-01T11:48:00Z,25.0840,-81.0960,21.41,1111122 
COMPS,ioos:station:USF.COMPS:NFB:1,2012-12-01T11:54:00Z,25.0840,-81.0960,21.4,1111122 
COMPS,ioos:station:USF.COMPS:NFB:1,2012-12-01T12:00:00Z,25.0840,-81.0960,21.4,1111122 
COMPS,ioos:station:USF.COMPS:NFB:1,2012-12-01T12:06:00Z,25.0840,-81.0960,21.4,1111122 
COMPS,ioos:station:USF.COMPS:NFB:1,2012-12-01T12:12:00Z,25.0840,-81.0960,21.36,1111122 
COMPS,ioos:station:USF.COMPS:NFB:1,2012-12-01T12:18:00Z,25.0840,-81.0960,21.34,1111122 
COMPS,ioos:station:USF.COMPS:NFB:1,2012-12-01T12:24:00Z,25.0840,-81.0960,21.38,1111122 
COMPS,ioos:station:USF.COMPS:NFB:1,2012-12-01T12:30:00Z,25.0840,-81.0960,21.36,1111122 
COMPS,ioos:station:USF.COMPS:NFB:1,2012-12-01T12:36:00Z,25.0840,-81.0960,21.5,1111122 
COMPS,ioos:station:USF.COMPS:NFB:1,2012-12-01T12:42:00Z,25.0840,-81.0960,21.52,1111122 
COMPS,ioos:station:USF.COMPS:NFB:1,2012-12-01T12:48:00Z,25.0840,-81.0960,21.57,1111122 
COMPS,ioos:station:USF.COMPS:NFB:1,2012-12-01T12:54:00Z,25.0840,-81.0960,21.65,1111122 
COMPS,ioos:station:USF.COMPS:NFB:1,2012-12-01T13:00:00Z,25.0840,-81.0960,21.7,1111122 
COMPS,ioos:station:USF.COMPS:NFB:1,2012-12-01T13:06:00Z,25.0840,-81.0960,21.63,1111122 
COMPS,ioos:station:USF.COMPS:NFB:1,2012-12-01T13:12:00Z,25.0840,-81.0960,21.67,1111122 
COMPS,ioos:station:USF.COMPS:NFB:1,2012-12-01T13:18:00Z,25.0840,-81.0960,21.7,1111122 
COMPS,ioos:station:USF.COMPS:NFB:1,2012-12-01T13:24:00Z,25.0840,-81.0960,21.81,1111122 
COMPS,ioos:station:USF.COMPS:NFB:1,2012-12-01T13:30:00Z,25.0840,-81.0960,21.87,1111122 
COMPS,ioos:station:USF.COMPS:NFB:1,2012-12-01T13:36:00Z,25.0840,-81.0960,21.99,1111122 
COMPS,ioos:station:USF.COMPS:NFB:1,2012-12-01T13:42:00Z,25.0840,-81.0960,22.08,1111122 
COMPS,ioos:station:USF.COMPS:NFB:1,2012-12-01T13:48:00Z,25.0840,-81.0960,22.17,1111122 
COMPS,ioos:station:USF.COMPS:NFB:1,2012-12-01T13:54:00Z,25.0840,-81.0960,22.22,1111122 
COMPS,ioos:station:USF.COMPS:NFB:1,2012-12-01T14:00:00Z,25.0840,-81.0960,22.2,1111122 
COMPS,ioos:station:USF.COMPS:NFB:1,2012-12-01T14:06:00Z,25.0840,-81.0960,22.53,1111122 
COMPS,ioos:station:USF.COMPS:NFB:1,2012-12-01T14:12:00Z,25.0840,-81.0960,22.66,1111122 
COMPS,ioos:station:USF.COMPS:NFB:1,2012-12-01T14:18:00Z,25.0840,-81.0960,22.78,1111122 
COMPS,ioos:station:USF.COMPS:NFB:1,2012-12-01T14:24:00Z,25.0840,-81.0960,22.87,1111122 
COMPS,ioos:station:USF.COMPS:NFB:1,2012-12-01T14:30:00Z,25.0840,-81.0960,22.85,1111122 
COMPS,ioos:station:USF.COMPS:NFB:1,2012-12-01T14:36:00Z,25.0840,-81.0960,22.86,1111122 
COMPS,ioos:station:USF.COMPS:NFB:1,2012-12-01T14:42:00Z,25.0840,-81.0960,22.9,1111122 
COMPS,ioos:station:USF.COMPS:NFB:1,2012-12-01T14:48:00Z,25.0840,-81.0960,23.02,1111122 
COMPS,ioos:station:USF.COMPS:NFB:1,2012-12-01T14:54:00Z,25.0840,-81.0960,23.08,1111122 
COMPS,ioos:station:USF.COMPS:NFB:1,2012-12-01T15:00:00Z,25.0840,-81.0960,23.1,1111122 
COMPS,ioos:station:USF.COMPS:NFB:1,2012-12-01T15:06:00Z,25.0840,-81.0960,23.11,1111122 
COMPS,ioos:station:USF.COMPS:NFB:1,2012-12-01T15:12:00Z,25.0840,-81.0960,23.17,1111122 
COMPS,ioos:station:USF.COMPS:NFB:1,2012-12-01T15:18:00Z,25.0840,-81.0960,23.3,1111122 
COMPS,ioos:station:USF.COMPS:NFB:1,2012-12-01T15:24:00Z,25.0840,-81.0960,23.3,1111122 
COMPS,ioos:station:USF.COMPS:NFB:1,2012-12-01T15:30:00Z,25.0840,-81.0960,23.25,1111122 
COMPS,ioos:station:USF.COMPS:NFB:1,2012-12-01T15:36:00Z,25.0840,-81.0960,23.37,1111122 
COMPS,ioos:station:USF.COMPS:NFB:1,2012-12-01T15:42:00Z,25.0840,-81.0960,23.59,1111122 
COMPS,ioos:station:USF.COMPS:NFB:1,2012-12-01T15:48:00Z,25.0840,-81.0960,23.6,1111122 
COMPS,ioos:station:USF.COMPS:NFB:1,2012-12-01T15:54:00Z,25.0840,-81.0960,23.7,1111122 
COMPS,ioos:station:USF.COMPS:NFB:1,2012-12-01T16:00:00Z,25.0840,-81.0960,23.7,1111122 
COMPS,ioos:station:USF.COMPS:NFB:1,2012-12-01T16:06:00Z,25.0840,-81.0960,23.61,1111122 
COMPS,ioos:station:USF.COMPS:NFB:1,2012-12-01T16:12:00Z,25.0840,-81.0960,23.57,1111122 
COMPS,ioos:station:USF.COMPS:NFB:1,2012-12-01T16:18:00Z,25.0840,-81.0960,23.55,1111122 
COMPS,ioos:station:USF.COMPS:NFB:1,2012-12-01T16:24:00Z,25.0840,-81.0960,23.5,1111122 
COMPS,ioos:station:USF.COMPS:NFB:1,2012-12-01T16:30:00Z,25.0840,-81.0960,23.56,1111122 
COMPS,ioos:station:USF.COMPS:NFB:1,2012-12-01T16:36:00Z,25.0840,-81.0960,23.48,1111122 
COMPS,ioos:station:USF.COMPS:NFB:1,2012-12-01T16:42:00Z,25.0840,-81.0960,23.63,1111122 
COMPS,ioos:station:USF.COMPS:NFB:1,2012-12-01T16:48:00Z,25.0840,-81.0960,23.65,1111122 
COMPS,ioos:station:USF.COMPS:NFB:1,2012-12-01T16:54:00Z,25.0840,-81.0960,23.49,1111122 
COMPS,ioos:station:USF.COMPS:NFB:1,2012-12-01T17:00:00Z,25.0840,-81.0960,23.5,1111122 
COMPS,ioos:station:USF.COMPS:NFB:1,2012-12-01T17:06:00Z,25.0840,-81.0960,23.51,1111122 
COMPS,ioos:station:USF.COMPS:NFB:1,2012-12-01T17:12:00Z,25.0840,-81.0960,23.61,1111122 
COMPS,ioos:station:USF.COMPS:NFB:1,2012-12-01T17:18:00Z,25.0840,-81.0960,23.39,1111122 
COMPS,ioos:station:USF.COMPS:NFB:1,2012-12-01T17:24:00Z,25.0840,-81.0960,23.57,1111122 
COMPS,ioos:station:USF.COMPS:NFB:1,2012-12-01T17:30:00Z,25.0840,-81.0960,23.15,1111122 
COMPS,ioos:station:USF.COMPS:NFB:1,2012-12-01T17:36:00Z,25.0840,-81.0960,22.83,1111122 
COMPS,ioos:station:USF.COMPS:NFB:1,2012-12-01T17:42:00Z,25.0840,-81.0960,23.21,1111122 
COMPS,ioos:station:USF.COMPS:NFB:1,2012-12-01T17:48:00Z,25.0840,-81.0960,23.58,1111122 
COMPS,ioos:station:USF.COMPS:NFB:1,2012-12-01T17:54:00Z,25.0840,-81.0960,23.6,1111122 
COMPS,ioos:station:USF.COMPS:NFB:1,2012-12-01T18:00:00Z,25.0840,-81.0960,23.6,1111122 
COMPS,ioos:station:USF.COMPS:NFB:1,2012-12-01T18:06:00Z,25.0840,-81.0960,23.17,1111122 
COMPS,ioos:station:USF.COMPS:NFB:1,2012-12-01T18:12:00Z,25.0840,-81.0960,23.44,1111122 
COMPS,ioos:station:USF.COMPS:NFB:1,2012-12-01T18:18:00Z,25.0840,-81.0960,23.57,1111122 
COMPS,ioos:station:USF.COMPS:NFB:1,2012-12-01T18:24:00Z,25.0840,-81.0960,23.69,1111122 
COMPS,ioos:station:USF.COMPS:NFB:1,2012-12-01T18:30:00Z,25.0840,-81.0960,23.7,1111122 
COMPS,ioos:station:USF.COMPS:NFB:1,2012-12-01T18:36:00Z,25.0840,-81.0960,23.84,1111122 
COMPS,ioos:station:USF.COMPS:NFB:1,2012-12-01T18:42:00Z,25.0840,-81.0960,23.9,1111122 
COMPS,ioos:station:USF.COMPS:NFB:1,2012-12-01T18:48:00Z,25.0840,-81.0960,23.74,1111122 
COMPS,ioos:station:USF.COMPS:NFB:1,2012-12-01T18:54:00Z,25.0840,-81.0960,23.84,1111122 
COMPS,ioos:station:USF.COMPS:NFB:1,2012-12-01T19:00:00Z,25.0840,-81.0960,23.8,1111122 
COMPS,ioos:station:USF.COMPS:NFB:1,2012-12-01T19:06:00Z,25.0840,-81.0960,23.78,1111122 
COMPS,ioos:station:USF.COMPS:NFB:1,2012-12-01T19:12:00Z,25.0840,-81.0960,23.79,1111122 
COMPS,ioos:station:USF.COMPS:NFB:1,2012-12-01T19:18:00Z,25.0840,-81.0960,23.84,1111122 
COMPS,ioos:station:USF.COMPS:NFB:1,2012-12-01T19:24:00Z,25.0840,-81.0960,23.74,1111122 
COMPS,ioos:station:USF.COMPS:NFB:1,2012-12-01T19:30:00Z,25.0840,-81.0960,23.78,1111122 
COMPS,ioos:station:USF.COMPS:NFB:1,2012-12-01T19:36:00Z,25.0840,-81.0960,23.88,1111122 
COMPS,ioos:station:USF.COMPS:NFB:1,2012-12-01T19:42:00Z,25.0840,-81.0960,23.95,1111122 
COMPS,ioos:station:USF.COMPS:NFB:1,2012-12-01T19:48:00Z,25.0840,-81.0960,23.9,1111122 
COMPS,ioos:station:USF.COMPS:NFB:1,2012-12-01T19:54:00Z,25.0840,-81.0960,23.87,1111122 
COMPS,ioos:station:USF.COMPS:NFB:1,2012-12-01T20:00:00Z,25.0840,-81.0960,23.94,1111122 
COMPS,ioos:station:USF.COMPS:NFB:1,2012-12-01T20:06:00Z,25.0840,-81.0960,24.05,1111122 
COMPS,ioos:station:USF.COMPS:NFB:1,2012-12-01T20:12:00Z,25.0840,-81.0960,23.93,1111122 
COMPS,ioos:station:USF.COMPS:NFB:1,2012-12-01T20:18:00Z,25.0840,-81.0960,23.77,1111122 
COMPS,ioos:station:USF.COMPS:NFB:1,2012-12-01T20:24:00Z,25.0840,-81.0960,23.66,1111122 
COMPS,ioos:station:USF.COMPS:NFB:1,2012-12-01T20:30:00Z,25.0840,-81.0960,23.6,1111122 
COMPS,ioos:station:USF.COMPS:NFB:1,2012-12-01T20:36:00Z,25.0840,-81.0960,23.98,1111122 
COMPS,ioos:station:USF.COMPS:NFB:1,2012-12-01T20:42:00Z,25.0840,-81.0960,23.79,1111122 
COMPS,ioos:station:USF.COMPS:NFB:1,2012-12-01T20:48:00Z,25.0840,-81.0960,23.86,1111122 
COMPS,ioos:station:USF.COMPS:NFB:1,2012-12-01T20:54:00Z,25.0840,-81.0960,23.87,1111122 
COMPS,ioos:station:USF.COMPS:NFB:1,2012-12-01T21:00:00Z,25.0840,-81.0960,23.85,1111122 
COMPS,ioos:station:USF.COMPS:NFB:1,2012-12-01T21:06:00Z,25.0840,-81.0960,23.95,1111122 
COMPS,ioos:station:USF.COMPS:NFB:1,2012-12-01T21:12:00Z,25.0840,-81.0960,24.05,1111122 
COMPS,ioos:station:USF.COMPS:NFB:1,2012-12-01T21:18:00Z,25.0840,-81.0960,23.92,1111122 
COMPS,ioos:station:USF.COMPS:NFB:1,2012-12-01T21:24:00Z,25.0840,-81.0960,23.93,1111122 
COMPS,ioos:station:USF.COMPS:NFB:1,2012-12-01T21:30:00Z,25.0840,-81.0960,23.85,1111122 
COMPS,ioos:station:USF.COMPS:NFB:1,2012-12-01T21:36:00Z,25.0840,-81.0960,23.79,1111122 
COMPS,ioos:station:USF.COMPS:NFB:1,2012-12-01T21:42:00Z,25.0840,-81.0960,23.85,1111122 
COMPS,ioos:station:USF.COMPS:NFB:1,2012-12-01T21:48:00Z,25.0840,-81.0960,23.79,1111122 
COMPS,ioos:station:USF.COMPS:NFB:1,2012-12-01T21:54:00Z,25.0840,-81.0960,23.74,1111122 
COMPS,ioos:station:USF.COMPS:NFB:1,2012-12-01T22:00:00Z,25.0840,-81.0960,23.7,1111122 
COMPS,ioos:station:USF.COMPS:NFB:1,2012-12-01T22:06:00Z,25.0840,-81.0960,23.63,1111122 
COMPS,ioos:station:USF.COMPS:NFB:1,2012-12-01T22:12:00Z,25.0840,-81.0960,23.6,1111122 
COMPS,ioos:station:USF.COMPS:NFB:1,2012-12-01T22:18:00Z,25.0840,-81.0960,23.59,1111122 
COMPS,ioos:station:USF.COMPS:NFB:1,2012-12-01T22:24:00Z,25.0840,-81.0960,23.46,1111122 
COMPS,ioos:station:USF.COMPS:NFB:1,2012-12-01T22:30:00Z,25.0840,-81.0960,23.36,1111122 
COMPS,ioos:station:USF.COMPS:NFB:1,2012-12-01T22:36:00Z,25.0840,-81.0960,23.61,1111122 
COMPS,ioos:station:USF.COMPS:NFB:1,2012-12-01T22:42:00Z,25.0840,-81.0960,23.57,1111122 
COMPS,ioos:station:USF.COMPS:NFB:1,2012-12-01T22:48:00Z,25.0840,-81.0960,23.41,1111122 
COMPS,ioos:station:USF.COMPS:NFB:1,2012-12-01T22:54:00Z,25.0840,-81.0960,23.35,1111122 
COMPS,ioos:station:USF.COMPS:NFB:1,2012-12-01T23:00:00Z,25.0840,-81.0960,23.23,1111122 
COMPS,ioos:station:USF.COMPS:NFB:1,2012-12-01T23:06:00Z,25.0840,-81.0960,23.26,1111122 
COMPS,ioos:station:USF.COMPS:NFB:1,2012-12-01T23:12:00Z,25.0840,-81.0960,23.16,1111122 
COMPS,ioos:station:USF.COMPS:NFB:1,2012-12-01T23:18:00Z,25.0840,-81.0960,23.14,1111122 
COMPS,ioos:station:USF.COMPS:NFB:1,2012-12-01T23:24:00Z,25.0840,-81.0960,23.03,1111122 
COMPS,ioos:station:USF.COMPS:NFB:1,2012-12-01T23:30:00Z,25.0840,-81.0960,22.86,1111122 
COMPS,ioos:station:USF.COMPS:NFB:1,2012-12-01T23:36:00Z,25.0840,-81.0960,22.79,1111122 
COMPS,ioos:station:USF.COMPS:NFB:1,2012-12-01T23:42:00Z,25.0840,-81.0960,22.73,1111122 
COMPS,ioos:station:USF.COMPS:NFB:1,2012-12-01T23:48:00Z,25.0840,-81.0960,22.62,1111122 
COMPS,ioos:station:USF.COMPS:NFB:1,2012-12-01T23:54:00Z,25.0840,-81.0960,22.55,1111122 
COMPS,ioos:station:USF.COMPS:NFB:1,2012-12-02T00:00:00Z,25.0840,-81.0960,22.6,1111122 
COMPS,ioos:station:USF.COMPS:NFB:1,2012-12-02T00:06:00Z,25.0840,-81.0960,22.59,1111122 
COMPS,ioos:station:USF.COMPS:NFB:1,2012-12-02T00:12:00Z,25.0840,-81.0960,22.59,1111122 
COMPS,ioos:station:USF.COMPS:NFB:1,2012-12-02T00:18:00Z,25.0840,-81.0960,22.59,1111122 
COMPS,ioos:station:USF.COMPS:NFB:1,2012-12-02T00:24:00Z,25.0840,-81.0960,22.5,1111122 
COMPS,ioos:station:USF.COMPS:NFB:1,2012-12-02T00:30:00Z,25.0840,-81.0960,22.41,1111122 
COMPS,ioos:station:USF.COMPS:NFB:1,2012-12-02T00:36:00Z,25.0840,-81.0960,22.36,1111122 
COMPS,ioos:station:USF.COMPS:NFB:1,2012-12-02T00:42:00Z,25.0840,-81.0960,22.35,1111122 
COMPS,ioos:station:USF.COMPS:NFB:1,2012-12-02T00:48:00Z,25.0840,-81.0960,22.34,1111122 
COMPS,ioos:station:USF.COMPS:NFB:1,2012-12-02T00:54:00Z,25.0840,-81.0960,22.34,1111122 
COMPS,ioos:station:USF.COMPS:NFB:1,2012-12-02T01:00:00Z,25.0840,-81.0960,22.3,1111122 
COMPS,ioos:station:USF.COMPS:NFB:1,2012-12-02T01:06:00Z,25.0840,-81.0960,22.22,1111122 
COMPS,ioos:station:USF.COMPS:NFB:1,2012-12-02T01:12:00Z,25.0840,-81.0960,22.22,1111122 
COMPS,ioos:station:USF.COMPS:NFB:1,2012-12-02T01:18:00Z,25.0840,-81.0960,22.21,1111122 
COMPS,ioos:station:USF.COMPS:NFB:1,2012-12-02T01:24:00Z,25.0840,-81.0960,22.2,1111122 
COMPS,ioos:station:USF.COMPS:NFB:1,2012-12-02T01:30:00Z,25.0840,-81.0960,22.16,1111122 
COMPS,ioos:station:USF.COMPS:NFB:1,2012-12-02T01:36:00Z,25.0840,-81.0960,22.18,1111122 
COMPS,ioos:station:USF.COMPS:NFB:1,2012-12-02T01:42:00Z,25.0840,-81.0960,22.14,1111122 
COMPS,ioos:station:USF.COMPS:NFB:1,2012-12-02T01:48:00Z,25.0840,-81.0960,22.08,1111122 
COMPS,ioos:station:USF.COMPS:NFB:1,2012-12-02T01:54:00Z,25.0840,-81.0960,22.07,1111122 
COMPS,ioos:station:USF.COMPS:NFB:1,2012-12-02T02:00:00Z,25.0840,-81.0960,22.1,1111122 
COMPS,ioos:station:USF.COMPS:NFB:1,2012-12-02T02:06:00Z,25.0840,-81.0960,21.95,1111122 
COMPS,ioos:station:USF.COMPS:NFB:1,2012-12-02T02:12:00Z,25.0840,-81.0960,21.95,1111122 
COMPS,ioos:station:USF.COMPS:NFB:1,2012-12-02T02:18:00Z,25.0840,-81.0960,21.97,1111122 
COMPS,ioos:station:USF.COMPS:NFB:1,2012-12-02T02:24:00Z,25.0840,-81.0960,21.9,1111122 
COMPS,ioos:station:USF.COMPS:NFB:1,2012-12-02T02:30:00Z,25.0840,-81.0960,21.75,1111122 
COMPS,ioos:station:USF.COMPS:NFB:1,2012-12-02T02:36:00Z,25.0840,-81.0960,21.68,1111122 
COMPS,ioos:station:USF.COMPS:NFB:1,2012-12-02T02:42:00Z,25.0840,-81.0960,21.65,1111122 
COMPS,ioos:station:USF.COMPS:NFB:1,2012-12-02T02:48:00Z,25.0840,-81.0960,21.46,1111122 
COMPS,ioos:station:USF.COMPS:NFB:1,2012-12-02T02:54:00Z,25.0840,-81.0960,21.33,1111122 
COMPS,ioos:station:USF.COMPS:NFB:1,2012-12-02T03:00:00Z,25.0840,-81.0960,21.31,1111122 
COMPS,ioos:station:USF.COMPS:NFB:1,2012-12-02T03:06:00Z,25.0840,-81.0960,21.22,1111122 